DLH9PZ EDDF-LIRF

Flight info

Callsign DLH9PZ
Flight time 1h 30m
Altitude 35000
Route CINDY8S CINDY Z74 LAMPU DCT NOMBO Y161 RIDAR DCT KONIN DCT BERAS DCT LIKDA DCT BAKOR DCT VESAL DCT VIC DCT KOPER DCT SUKOM DCT GAVRA DCT RITEB
Aircraft A321/M-SDE3FGHIRWY/LB1

Departure

Time 2026-05-06 04:51
Airport Frankfurt Main Airport (EDDF)

Arrival

Time 2026-05-06 06:22
Airport Rome–Fiumicino Leonardo da Vinci International Airport (LIRF)
Time Latitude Longitude Altitude Speed Heading
2026-05-06 04:12 50.04687 8.56701 365 ft 0 kts 115°
2026-05-06 04:41 50.04691 8.56686 363 ft 4 kts 115°
2026-05-06 04:41 50.04701 8.56653 361 ft 3 kts 116°
2026-05-06 04:41 50.04714 8.56627 360 ft 4 kts 179°
2026-05-06 04:42 50.04737 8.56639 357 ft 4 kts 206°
2026-05-06 04:42 50.04760 8.56656 361 ft 4 kts 208°
2026-05-06 04:42 50.04782 8.56674 362 ft 2 kts 205°
2026-05-06 04:42 50.04783 8.56675 362 ft 0 kts 205°
2026-05-06 04:44 50.04776 8.56669 363 ft 3 kts 205°
2026-05-06 04:45 50.04736 8.56616 361 ft 12 kts 231°
2026-05-06 04:45 50.04683 8.56499 360 ft 14 kts 244°
2026-05-06 04:45 50.04648 8.56355 359 ft 15 kts 250°
2026-05-06 04:45 50.04611 8.56199 362 ft 16 kts 249°
2026-05-06 04:46 50.04572 8.56035 362 ft 17 kts 250°
2026-05-06 04:46 50.04482 8.55936 360 ft 17 kts 197°
2026-05-06 04:46 50.04366 8.55918 358 ft 17 kts 165°
2026-05-06 04:46 50.04248 8.55942 360 ft 18 kts 217°
2026-05-06 04:47 50.04196 8.55759 358 ft 19 kts 249°
2026-05-06 04:47 50.04147 8.55556 356 ft 21 kts 249°
2026-05-06 04:47 50.04097 8.55347 353 ft 21 kts 249°
2026-05-06 04:47 50.04048 8.55140 359 ft 20 kts 250°
2026-05-06 04:48 50.03998 8.54929 359 ft 21 kts 250°
2026-05-06 04:48 50.03943 8.54703 354 ft 23 kts 249°
2026-05-06 04:48 50.03886 8.54463 352 ft 24 kts 250°
2026-05-06 04:48 50.03803 8.54230 356 ft 25 kts 245°
2026-05-06 04:49 50.03740 8.53976 347 ft 26 kts 249°
2026-05-06 04:49 50.03678 8.53714 350 ft 25 kts 250°
2026-05-06 04:49 50.03619 8.53481 337 ft 23 kts 250°
2026-05-06 04:49 50.03563 8.53245 337 ft 24 kts 249°
2026-05-06 04:50 50.03504 8.53000 333 ft 25 kts 250°
2026-05-06 04:50 50.03448 8.52791 334 ft 16 kts 247°
2026-05-06 04:50 50.03406 8.52644 334 ft 13 kts 232°
2026-05-06 04:50 50.03323 8.52595 334 ft 19 kts 181°
2026-05-06 04:51 50.03034 8.52596 330 ft 73 kts 180°
2026-05-06 04:51 50.02298 8.52604 334 ft 136 kts 179°
2026-05-06 04:51 50.01189 8.52614 426 ft 175 kts 180°
2026-05-06 04:51 49.99988 8.52619 1157 ft 172 kts 181°
2026-05-06 04:52 49.98785 8.52622 1825 ft 176 kts 185°
2026-05-06 04:52 49.97491 8.52691 2093 ft 200 kts 175°
2026-05-06 04:52 49.96218 8.53857 2319 ft 233 kts 133°
2026-05-06 04:52 49.95353 8.56056 2858 ft 241 kts 123°
2026-05-06 04:53 49.94541 8.58343 3470 ft 243 kts 121°
2026-05-06 04:53 49.94031 8.60878 4016 ft 254 kts 98°
2026-05-06 04:53 49.93859 8.63710 4252 ft 274 kts 106°
2026-05-06 04:53 49.93177 8.66512 4785 ft 281 kts 120°
2026-05-06 04:54 49.92231 8.69169 5493 ft 282 kts 124°
2026-05-06 04:54 49.91205 8.71776 6253 ft 284 kts 126°
2026-05-06 04:54 49.90171 8.74407 6943 ft 287 kts 124°
2026-05-06 04:54 49.89154 8.77089 7625 ft 290 kts 123°
2026-05-06 04:55 49.88158 8.79826 8322 ft 292 kts 122°
2026-05-06 04:55 49.87177 8.82599 9017 ft 295 kts 122°
2026-05-06 04:55 49.86200 8.85414 9703 ft 298 kts 121°
2026-05-06 04:55 49.85211 8.88291 10083 ft 311 kts 121°
2026-05-06 04:56 49.84156 8.91353 10213 ft 332 kts 121°
2026-05-06 04:56 49.83037 8.94603 10340 ft 352 kts 121°
2026-05-06 04:56 49.81859 8.98020 10610 ft 365 kts 121°
2026-05-06 04:56 49.80655 9.01512 11135 ft 369 kts 121°
2026-05-06 04:57 49.79440 9.05029 11725 ft 372 kts 121°
2026-05-06 04:57 49.78214 9.08567 12302 ft 374 kts 121°
2026-05-06 04:57 49.76977 9.12129 12871 ft 377 kts 121°
2026-05-06 04:57 49.75733 9.15718 13449 ft 380 kts 121°
2026-05-06 04:58 49.74360 9.19214 13935 ft 380 kts 130°
2026-05-06 04:58 49.72665 9.22343 14443 ft 381 kts 134°
2026-05-06 04:58 49.70913 9.25431 14961 ft 383 kts 134°
2026-05-06 04:58 49.69148 9.28543 15475 ft 386 kts 134°
2026-05-06 04:59 49.67374 9.31668 15991 ft 388 kts 134°
2026-05-06 04:59 49.65587 9.34813 16484 ft 391 kts 134°
2026-05-06 04:59 49.63788 9.37977 16966 ft 393 kts 134°
2026-05-06 04:59 49.61874 9.40987 17409 ft 393 kts 143°
2026-05-06 05:00 49.59668 9.43448 17863 ft 391 kts 152°
2026-05-06 05:00 49.57317 9.45590 18296 ft 394 kts 152°
2026-05-06 05:00 49.54925 9.47771 18709 ft 395 kts 153°
2026-05-06 05:00 49.52558 9.49933 19120 ft 397 kts 153°
2026-05-06 05:01 49.50177 9.52107 19512 ft 399 kts 153°
2026-05-06 05:01 49.47783 9.54293 19905 ft 402 kts 153°
2026-05-06 05:01 49.45372 9.56492 20301 ft 404 kts 153°
2026-05-06 05:01 49.42947 9.58703 20693 ft 407 kts 153°
2026-05-06 05:02 49.40505 9.60923 21084 ft 409 kts 153°
2026-05-06 05:02 49.38047 9.63150 21471 ft 412 kts 153°
2026-05-06 05:02 49.35574 9.65396 21866 ft 414 kts 152°
2026-05-06 05:02 49.33268 9.67994 22204 ft 421 kts 142°
2026-05-06 05:03 49.31150 9.71146 22527 ft 427 kts 139°
2026-05-06 05:03 49.29040 9.74375 22886 ft 430 kts 139°
2026-05-06 05:03 49.26918 9.77617 23242 ft 433 kts 139°
2026-05-06 05:03 49.24782 9.80879 23554 ft 435 kts 139°
2026-05-06 05:04 49.22635 9.84157 23884 ft 437 kts 139°
2026-05-06 05:04 49.20481 9.87442 24240 ft 438 kts 140°
2026-05-06 05:04 49.18316 9.90737 24569 ft 440 kts 140°
2026-05-06 05:04 49.16140 9.94037 24889 ft 441 kts 140°
2026-05-06 05:05 49.13953 9.97339 25213 ft 443 kts 140°
2026-05-06 05:05 49.11759 10.00644 25528 ft 444 kts 140°
2026-05-06 05:05 49.09554 10.03966 25851 ft 446 kts 140°
2026-05-06 05:05 49.07344 10.07300 26152 ft 447 kts 140°
2026-05-06 05:06 49.05122 10.10628 26497 ft 448 kts 141°
2026-05-06 05:06 49.02863 10.13903 26806 ft 449 kts 142°
2026-05-06 05:06 49.00572 10.17140 27083 ft 450 kts 143°
2026-05-06 05:06 48.98258 10.20361 27353 ft 452 kts 143°
2026-05-06 05:07 48.95932 10.23591 27628 ft 453 kts 143°
2026-05-06 05:07 48.93602 10.26839 27890 ft 455 kts 143°
2026-05-06 05:07 48.91271 10.30107 28136 ft 457 kts 143°
2026-05-06 05:07 48.88934 10.33395 28381 ft 458 kts 143°
2026-05-06 05:08 48.86596 10.36692 28625 ft 459 kts 143°
2026-05-06 05:08 48.84255 10.39996 28966 ft 458 kts 143°
2026-05-06 05:08 48.81939 10.43311 29268 ft 459 kts 142°
2026-05-06 05:08 48.79683 10.46749 29540 ft 461 kts 140°
2026-05-06 05:09 48.77479 10.50287 29832 ft 461 kts 139°
2026-05-06 05:09 48.75309 10.53866 30084 ft 461 kts 139°
2026-05-06 05:09 48.73147 10.57450 30368 ft 460 kts 139°
2026-05-06 05:09 48.70982 10.61007 30643 ft 459 kts 139°
2026-05-06 05:10 48.68808 10.64525 30909 ft 457 kts 140°
2026-05-06 05:10 48.66621 10.68015 31165 ft 456 kts 140°
2026-05-06 05:10 48.64432 10.71476 31429 ft 455 kts 140°
2026-05-06 05:10 48.62238 10.74930 31695 ft 454 kts 140°
2026-05-06 05:11 48.60013 10.78289 31946 ft 449 kts 145°
2026-05-06 05:11 48.57550 10.81125 32184 ft 441 kts 154°
2026-05-06 05:11 48.54892 10.83374 32395 ft 436 kts 159°
2026-05-06 05:11 48.52195 10.85475 32609 ft 437 kts 159°
2026-05-06 05:12 48.49460 10.87612 32803 ft 436 kts 159°
2026-05-06 05:12 48.46771 10.89719 33038 ft 436 kts 159°
2026-05-06 05:12 48.44082 10.91826 33275 ft 435 kts 159°
2026-05-06 05:12 48.41394 10.93923 33510 ft 435 kts 159°
2026-05-06 05:13 48.38706 10.96009 33747 ft 434 kts 159°
2026-05-06 05:13 48.36024 10.98089 33955 ft 433 kts 159°
2026-05-06 05:13 48.33346 11.00165 34139 ft 433 kts 159°
2026-05-06 05:13 48.30666 11.02240 34303 ft 433 kts 159°
2026-05-06 05:14 48.27985 11.04316 34473 ft 434 kts 159°
2026-05-06 05:14 48.25305 11.06390 34635 ft 434 kts 159°
2026-05-06 05:14 48.22622 11.08461 34791 ft 434 kts 159°
2026-05-06 05:15 48.17244 11.12594 34848 ft 434 kts 159°
2026-05-06 05:15 48.11904 11.16698 34832 ft 434 kts 159°
2026-05-06 05:16 48.06491 11.20855 34850 ft 435 kts 159°
2026-05-06 05:16 48.01141 11.24958 34857 ft 435 kts 159°
2026-05-06 05:17 47.95755 11.29071 34868 ft 435 kts 159°
2026-05-06 05:17 47.90360 11.33175 34870 ft 435 kts 159°
2026-05-06 05:18 47.84963 11.37272 34854 ft 436 kts 160°
2026-05-06 05:18 47.79604 11.41552 34866 ft 438 kts 158°
2026-05-06 05:19 47.74283 11.45976 34856 ft 438 kts 158°
2026-05-06 05:19 47.68960 11.50371 34871 ft 438 kts 159°
2026-05-06 05:20 47.63616 11.54708 34863 ft 438 kts 159°
2026-05-06 05:20 47.58265 11.59017 34873 ft 437 kts 159°
2026-05-06 05:21 47.53824 11.62593 34879 ft 437 kts 159°
2026-05-06 05:21 47.48483 11.66897 34885 ft 437 kts 159°
2026-05-06 05:22 47.43138 11.71181 34889 ft 437 kts 159°
2026-05-06 05:22 47.37733 11.75161 34874 ft 428 kts 168°
2026-05-06 05:23 47.32026 11.76716 34895 ft 411 kts 185°
2026-05-06 05:23 47.23497 11.76267 34904 ft 408 kts 187°
2026-05-06 05:24 47.17815 11.75967 34902 ft 409 kts 187°
2026-05-06 05:24 47.12133 11.75660 34906 ft 408 kts 187°
2026-05-06 05:25 47.06459 11.75356 34928 ft 408 kts 187°
2026-05-06 05:25 47.00798 11.75048 34933 ft 407 kts 187°
2026-05-06 05:26 46.95124 11.74733 34923 ft 408 kts 187°
2026-05-06 05:26 46.89445 11.74416 34944 ft 409 kts 187°
2026-05-06 05:27 46.83752 11.74101 34963 ft 410 kts 187°
2026-05-06 05:27 46.78055 11.73793 34950 ft 409 kts 187°
2026-05-06 05:28 46.72366 11.73482 34947 ft 409 kts 187°
2026-05-06 05:28 46.66668 11.73176 34960 ft 410 kts 187°
2026-05-06 05:29 46.60969 11.72867 34960 ft 409 kts 187°
2026-05-06 05:29 46.55266 11.72553 34966 ft 410 kts 187°
2026-05-06 05:30 46.49563 11.72231 34969 ft 410 kts 187°
2026-05-06 05:30 46.43856 11.71914 34969 ft 410 kts 187°
2026-05-06 05:31 46.38149 11.71597 34987 ft 410 kts 187°
2026-05-06 05:31 46.32446 11.71290 34985 ft 410 kts 187°
2026-05-06 05:32 46.26751 11.70993 34985 ft 409 kts 187°
2026-05-06 05:32 46.21067 11.70685 34993 ft 409 kts 188°
2026-05-06 05:33 46.15385 11.70376 34979 ft 408 kts 188°
2026-05-06 05:33 46.09718 11.70065 34982 ft 408 kts 188°
2026-05-06 05:34 46.04036 11.69756 34988 ft 409 kts 188°
2026-05-06 05:34 45.98354 11.69461 34982 ft 409 kts 187°
2026-05-06 05:35 45.92673 11.69171 34973 ft 408 kts 188°
2026-05-06 05:35 45.87042 11.68879 34992 ft 407 kts 188°
2026-05-06 05:36 45.81354 11.68572 34974 ft 405 kts 188°
2026-05-06 05:36 45.75707 11.68265 34980 ft 407 kts 188°
2026-05-06 05:37 45.70057 11.67966 34977 ft 406 kts 188°
2026-05-06 05:37 45.64416 11.67671 34975 ft 405 kts 188°
2026-05-06 05:38 45.58790 11.67320 34973 ft 404 kts 188°
2026-05-06 05:38 45.53179 11.66893 34960 ft 403 kts 189°
2026-05-06 05:39 45.47574 11.66469 34964 ft 403 kts 189°
2026-05-06 05:39 45.41974 11.66065 34967 ft 403 kts 188°
2026-05-06 05:40 45.36373 11.65660 34957 ft 403 kts 189°
2026-05-06 05:40 45.30811 11.65255 34954 ft 403 kts 189°
2026-05-06 05:41 45.25214 11.64848 34938 ft 402 kts 189°
2026-05-06 05:41 45.19621 11.64448 34948 ft 402 kts 189°
2026-05-06 05:42 45.13995 11.64102 34930 ft 403 kts 187°
2026-05-06 05:42 45.08392 11.64269 34942 ft 407 kts 184°
2026-05-06 05:43 45.02726 11.64676 34949 ft 407 kts 184°
2026-05-06 05:43 44.97066 11.65036 34935 ft 406 kts 185°
2026-05-06 05:44 44.91418 11.65312 34928 ft 406 kts 185°
2026-05-06 05:44 44.85781 11.65556 34914 ft 405 kts 185°
2026-05-06 05:45 44.80141 11.65803 34916 ft 406 kts 185°
2026-05-06 05:45 44.74492 11.66075 34900 ft 407 kts 185°
2026-05-06 05:46 44.68830 11.66352 34910 ft 407 kts 185°
2026-05-06 05:46 44.63158 11.66609 34922 ft 408 kts 185°
2026-05-06 05:47 44.57489 11.66868 34912 ft 407 kts 185°
2026-05-06 05:47 44.51802 11.67657 34908 ft 414 kts 179°
2026-05-06 05:48 44.46096 11.68819 34913 ft 414 kts 179°
2026-05-06 05:48 44.40383 11.69973 34890 ft 415 kts 179°
2026-05-06 05:49 44.34646 11.71126 34883 ft 417 kts 179°
2026-05-06 05:49 44.28887 11.72280 34900 ft 419 kts 179°
2026-05-06 05:50 44.23115 11.73441 34907 ft 419 kts 179°
2026-05-06 05:50 44.17334 11.74597 34915 ft 420 kts 179°
2026-05-06 05:51 44.11547 11.75744 34924 ft 420 kts 179°
2026-05-06 05:51 44.05758 11.76896 34933 ft 420 kts 179°
2026-05-06 05:52 43.99965 11.78042 34916 ft 421 kts 179°
2026-05-06 05:52 43.94165 11.79193 34925 ft 422 kts 179°
2026-05-06 05:53 43.88354 11.80355 34939 ft 422 kts 179°
2026-05-06 05:53 43.82532 11.81510 34949 ft 423 kts 179°
2026-05-06 05:54 43.76708 11.82685 34950 ft 424 kts 177°
2026-05-06 05:54 43.73804 11.83457 34713 ft 426 kts 175°
2026-05-06 05:54 43.70913 11.84378 34469 ft 427 kts 174°
2026-05-06 05:55 43.68027 11.85371 33861 ft 429 kts 173°
2026-05-06 05:55 43.65131 11.86385 33015 ft 430 kts 173°
2026-05-06 05:55 43.62225 11.87383 32220 ft 430 kts 173°
2026-05-06 05:55 43.59310 11.88349 31416 ft 432 kts 173°
2026-05-06 05:56 43.56377 11.89290 30603 ft 433 kts 173°
2026-05-06 05:56 43.53424 11.90216 29634 ft 438 kts 173°
2026-05-06 05:56 43.50450 11.91144 28711 ft 438 kts 173°
2026-05-06 05:56 43.47492 11.92073 28187 ft 431 kts 172°
2026-05-06 05:57 43.44590 11.92993 27605 ft 426 kts 172°
2026-05-06 05:57 43.41726 11.93903 27039 ft 420 kts 172°
2026-05-06 05:57 43.38897 11.94800 26463 ft 415 kts 171°
2026-05-06 05:57 43.36103 11.95687 25910 ft 410 kts 171°
2026-05-06 05:58 43.33339 11.96559 25356 ft 405 kts 171°
2026-05-06 05:58 43.30608 11.97417 24820 ft 401 kts 171°
2026-05-06 05:58 43.27901 11.98266 24273 ft 398 kts 171°
2026-05-06 05:58 43.25215 11.99107 23740 ft 394 kts 170°
2026-05-06 05:59 43.22552 11.99945 23156 ft 391 kts 170°
2026-05-06 05:59 43.19911 12.00781 22626 ft 388 kts 170°
2026-05-06 05:59 43.17287 12.01607 22112 ft 386 kts 170°
2026-05-06 05:59 43.14677 12.02426 21602 ft 383 kts 171°
2026-05-06 06:00 43.12090 12.03231 21110 ft 379 kts 171°
2026-05-06 06:00 43.09538 12.04026 20634 ft 373 kts 171°
2026-05-06 06:00 43.07020 12.04815 20173 ft 369 kts 171°
2026-05-06 06:00 43.04534 12.05599 19720 ft 364 kts 171°
2026-05-06 06:01 43.02080 12.06370 19288 ft 361 kts 171°
2026-05-06 06:01 42.99642 12.07129 18842 ft 357 kts 171°
2026-05-06 06:01 42.97222 12.07879 18403 ft 357 kts 172°
2026-05-06 06:01 42.95622 12.08376 18094 ft 356 kts 172°
2026-05-06 06:02 42.93212 12.09126 17633 ft 354 kts 172°
2026-05-06 06:02 42.90818 12.09872 17191 ft 352 kts 172°
2026-05-06 06:02 42.88441 12.10612 16744 ft 349 kts 172°
2026-05-06 06:02 42.86083 12.11346 16282 ft 346 kts 172°
2026-05-06 06:03 42.83711 12.12082 15818 ft 344 kts 172°
2026-05-06 06:03 42.81417 12.12795 15619 ft 330 kts 172°
2026-05-06 06:03 42.79259 12.13468 15498 ft 316 kts 172°
2026-05-06 06:03 42.77153 12.14122 15271 ft 306 kts 172°
2026-05-06 06:04 42.75093 12.14757 15017 ft 302 kts 172°
2026-05-06 06:04 42.73057 12.15384 14973 ft 298 kts 172°
2026-05-06 06:04 42.71021 12.16015 14994 ft 301 kts 170°
2026-05-06 06:04 42.69040 12.17017 14927 ft 309 kts 158°
2026-05-06 06:05 42.67177 12.18472 14579 ft 308 kts 154°
2026-05-06 06:05 42.65341 12.19954 14280 ft 306 kts 154°
2026-05-06 06:05 42.63515 12.21432 13987 ft 305 kts 154°
2026-05-06 06:05 42.61695 12.22899 13683 ft 303 kts 154°
2026-05-06 06:06 42.59884 12.24351 13388 ft 302 kts 154°
2026-05-06 06:06 42.58079 12.25793 13090 ft 300 kts 154°
2026-05-06 06:06 42.56288 12.27221 12785 ft 298 kts 154°
2026-05-06 06:06 42.54503 12.28643 12524 ft 297 kts 154°
2026-05-06 06:07 42.52729 12.30060 12245 ft 295 kts 154°
2026-05-06 06:07 42.50964 12.31467 11962 ft 294 kts 154°
2026-05-06 06:07 42.49207 12.32864 11679 ft 292 kts 154°
2026-05-06 06:07 42.47458 12.34255 11402 ft 291 kts 154°
2026-05-06 06:08 42.45719 12.35643 11125 ft 289 kts 154°
2026-05-06 06:08 42.43991 12.37021 10850 ft 288 kts 154°
2026-05-06 06:08 42.42272 12.38389 10585 ft 284 kts 155°
2026-05-06 06:08 42.40563 12.39661 10314 ft 275 kts 163°
2026-05-06 06:09 42.38747 12.40162 9982 ft 261 kts 185°
2026-05-06 06:09 42.37017 12.39737 9637 ft 249 kts 204°
2026-05-06 06:09 42.35543 12.38581 9296 ft 242 kts 216°
2026-05-06 06:09 42.34173 12.37281 8979 ft 238 kts 216°
2026-05-06 06:10 42.32827 12.36010 8645 ft 234 kts 215°
2026-05-06 06:10 42.31501 12.34758 8312 ft 230 kts 215°
2026-05-06 06:10 42.30202 12.33530 7994 ft 226 kts 215°
2026-05-06 06:10 42.28917 12.32316 7657 ft 224 kts 215°
2026-05-06 06:11 42.27644 12.31113 7331 ft 223 kts 215°
2026-05-06 06:11 42.26371 12.29914 7011 ft 223 kts 215°
2026-05-06 06:11 42.25104 12.28723 6700 ft 221 kts 215°
2026-05-06 06:11 42.23843 12.27538 6385 ft 220 kts 214°
2026-05-06 06:12 42.22591 12.26364 6047 ft 219 kts 214°
2026-05-06 06:12 42.21343 12.25193 5717 ft 217 kts 214°
2026-05-06 06:12 42.20128 12.24049 5438 ft 209 kts 213°
2026-05-06 06:12 42.18961 12.22949 5201 ft 199 kts 213°
2026-05-06 06:13 42.17860 12.21913 4962 ft 187 kts 213°
2026-05-06 06:13 42.16825 12.20939 4728 ft 175 kts 213°
2026-05-06 06:13 42.15838 12.20015 4470 ft 171 kts 211°
2026-05-06 06:13 42.14788 12.19276 4215 ft 169 kts 201°
2026-05-06 06:14 42.13663 12.18825 3963 ft 169 kts 192°
2026-05-06 06:14 42.12518 12.18489 3695 ft 168 kts 192°
2026-05-06 06:14 42.11380 12.18147 3440 ft 166 kts 191°
2026-05-06 06:14 42.10250 12.17805 3171 ft 168 kts 191°
2026-05-06 06:15 42.09104 12.17458 3042 ft 168 kts 188°
2026-05-06 06:15 42.07973 12.17119 2987 ft 165 kts 187°
2026-05-06 06:15 42.06835 12.17055 2983 ft 167 kts 173°
2026-05-06 06:15 42.05685 12.17373 2985 ft 170 kts 168°
2026-05-06 06:16 42.04548 12.17794 2973 ft 168 kts 166°
2026-05-06 06:16 42.03415 12.18250 2968 ft 171 kts 165°
2026-05-06 06:16 42.02287 12.18719 2972 ft 169 kts 165°
2026-05-06 06:16 42.01169 12.19187 3007 ft 168 kts 165°
2026-05-06 06:17 42.00060 12.19653 3008 ft 167 kts 165°
2026-05-06 06:17 41.98953 12.20119 2916 ft 166 kts 165°
2026-05-06 06:17 41.97851 12.20582 2735 ft 165 kts 163°
2026-05-06 06:17 41.96757 12.21043 2529 ft 164 kts 163°
2026-05-06 06:18 41.95664 12.21503 2322 ft 166 kts 163°
2026-05-06 06:18 41.94562 12.21965 2096 ft 166 kts 163°
2026-05-06 06:18 41.93467 12.22425 1875 ft 162 kts 162°
2026-05-06 06:18 41.92452 12.22852 1661 ft 146 kts 161°
2026-05-06 06:19 41.91503 12.23251 1466 ft 141 kts 161°
2026-05-06 06:19 41.90574 12.23641 1283 ft 139 kts 161°
2026-05-06 06:19 41.89653 12.24028 1092 ft 138 kts 161°
2026-05-06 06:19 41.88740 12.24427 923 ft 138 kts 161°
2026-05-06 06:20 41.87829 12.24835 688 ft 137 kts 162°
2026-05-06 06:20 41.86913 12.25192 471 ft 135 kts 163°
2026-05-06 06:20 41.86007 12.25560 333 ft 137 kts 161°
2026-05-06 06:20 41.85101 12.25955 160 ft 136 kts 160°
2026-05-06 06:21 41.84192 12.26310 28 ft 133 kts 160°
2026-05-06 06:21 41.83420 12.26644 13 ft 95 kts 163°
2026-05-06 06:21 41.82948 12.26842 12 ft 53 kts 162°
2026-05-06 06:21 41.82608 12.26983 12 ft 50 kts 163°
2026-05-06 06:22 41.82282 12.27116 10 ft 46 kts 166°
2026-05-06 06:22 41.82018 12.27129 11 ft 34 kts 189°
2026-05-06 06:22 41.81794 12.27062 11 ft 28 kts 191°
2026-05-06 06:22 41.81628 12.27071 12 ft 24 kts 164°
2026-05-06 06:23 41.81467 12.27140 14 ft 24 kts 162°
2026-05-06 06:23 41.81303 12.27208 14 ft 25 kts 163°
2026-05-06 06:23 41.81136 12.27277 12 ft 25 kts 162°
2026-05-06 06:23 41.80966 12.27346 13 ft 26 kts 168°
2026-05-06 06:24 41.80788 12.27325 13 ft 26 kts 189°
2026-05-06 06:24 41.80648 12.27197 13 ft 26 kts 247°
2026-05-06 06:24 41.80584 12.26967 15 ft 27 kts 250°
2026-05-06 06:24 41.80522 12.26738 14 ft 21 kts 250°
2026-05-06 06:25 41.80472 12.26554 17 ft 22 kts 250°
2026-05-06 06:25 41.80419 12.26361 15 ft 23 kts 249°
2026-05-06 06:25 41.80276 12.26072 14 ft 19 kts 205°
2026-05-06 06:26 41.80154 12.25996 16 ft 20 kts 205°
2026-05-06 06:26 41.80026 12.25919 14 ft 19 kts 204°
2026-05-06 06:26 41.79912 12.25848 14 ft 17 kts 206°
2026-05-06 06:26 41.79831 12.25787 14 ft 13 kts 208°
2026-05-06 06:27 41.79746 12.25733 14 ft 13 kts 205°
2026-05-06 06:27 41.79715 12.25679 14 ft 6 kts 282°
2026-05-06 06:27 41.79724 12.25649 14 ft 3 kts 292°
2026-05-06 06:27 41.79726 12.25644 16 ft 0 kts 293°